CZ-6A DEB, 54407

Orbit data source: Space-Track

CZ-6A DEB, 54407 is space debris in SSO originally from a launch on Fri, 11 Nov 2022 UTC launched from the Taiyaun Space Center, China (TSC). Debris objects in space refer to the collection of defunct objects orbiting the Earth. Examples of debris include non-operational satellites, rocket bodies, and fragments generated from explosions, collisions, or faulty payload assembly.

Loading next visibility...
Identifier
54407, 2022-151EF
Orbit
SSO
Country
Flag of CNCN / PRC
Related business
Manufacturer
SAST
Mission
Spacecraft
Bus & Motor
Unknown
Mass
Unknown
Launch date (UTC)
2022-11-11 (3 years ago)
Launch vehicle
Unknown
Launch site
Taiyaun Space Center, China (TSC)
Object type
Payload
Rocket body
Debris
Shape & HBR
Unknown shape, 0.2 m
Radar Cross Section
Small (<0.1 m²)

Expand to show TLE details & history
Last TLE update: 6 hours ago

TLE from 6 hours ago
0 CZ-6A DEB
1 54407U 22151EF  25352.25642332  .00001695  00000-0  79633-3 0  9997
2 54407  98.7709 356.1230 0043856 131.8621 228.6311 14.20865880159998
Epoch: 2025-12-18T06:09Z
TLE epoch observation values (Epoch: 2025-12-18T06:09:14.974Z)
Latitude
-0.00011°
Longitude
176.69609°
Altitude
846.292 km
Speed
7.419 km/s
True Right ascension
23h 44m 29s
True Declination
0° 00' 00"
Sunlit
Object was in daylight at epoch
Visualization orbit readout
Latitude
Unknown
Longitude
Unknown
Altitude
Unknown
Speed
Unknown
Apparent Right ascension
Unknown
Apparent Declination
Unknown
Sunlit
N/A
Visualization observer readout
Local Sidereal Time
11:25:55
Azimuth
Unknown
Elevation
Unknown
Doppler factor
Unknown
Orbital elements
Apogee altitude
851.153 km
Perigee altitude
788.02 km
Semi-major axis
7,197.723 km
Eccentricity
0.00439
Inclination
98.7709°
RAAN
356.123°
Arg. of periapsis
131.8621°
True anomaly
228.25531°
Mean anomaly
228.6311°
Eccentric anomaly
228.44307°
Mean motion
3.55427 °/min
Orbital period
101.29 mins
BSTAR
0.00079633
Loading maneuver chart data...
Computing Atmospheric mass density...
Loading historical data...
Loading historical data...
Loading historical data...
Loading historical data...
Loading historical data...
Loading historical data...
Loading historical data...

Documentation

Showing up to 5 results
|